Regional Weather Roundup
Issued by NWS

Home | Current Version | Previous Version | Text Only | Print | Product List | Glossary On
Versions: 1 2 3 4 5 6 7 8 9 10 11 12 13 14 15 16 17 18 19 20 21 22 23 24 25 26 27 28 29 30 31 32 33 34 35 36 37 38 39 40 41 42 43 44 45 46 47 48 49 50
891
ASUS44 KFWD 300915
RWRTX
NORTH TEXAS HOURLY WEATHER ROUNDUP
NATIONAL WEATHER SERVICE FORT WORTH TX
400 AM CDT SAT JUL 30 2016

NOTE: "FAIR" INDICATES FEW OR NO CLOUDS BELOW 12,000 FEET WITH NO
SIGNIFICANT WEATHER AND/OR OBSTRUCTIONS TO VISIBILITY.

TXZ118-119-301000-
DALLAS/FORT WORTH METROPLEX

CITY           SKY/WX    TMP DP  RH WIND       PRES   REMARKS
DFW AIRPORT    CLEAR     82  72  71 S12       29.96S
DALLAS LOVE    PTCLDY    83  73  72 S9        29.97S
FTW MEACHAM    CLEAR     82  70  66 S8        29.97S
DAL-EXECUTIVE  CLEAR     80  72  76 S8        29.97S
FTW-ALLIANCE   PTCLDY    79  71  76 S6        29.96S
FTW-NAS-JRB    CLEAR     80  69  69 S7        29.97F
FTW-SPINKS     CLEAR     78  70  76 S7        29.99S
ARLINGTON      PTCLDY    80  72  76 S8        29.97F
GRAND PRAIRIE  CLEAR     81  71  72 S6        29.99S
ADDISON        CLEAR     83  74  75 S7        29.99S
MESQUITE       CLEAR     77  74  90 SE5       29.98S
LANCASTER      CLEAR     79  73  80 S5        29.98F
$$

TXZ091>094-102>105-117-120-121-131>134-301000-
NORTH CENTRAL TEXAS

CITY           SKY/WX    TMP DP  RH WIND       PRES   REMARKS
SHRMAN/DENISON CLEAR     80  72  76 SE9       29.99S
GAINESVILLE    PTCLDY    76  73  89 CALM      29.99S
BOWIE          CLOUDY    75  72  88 CALM      29.98S
BRIDGEPORT     CLEAR     77  70  79 S5        29.98F
DECATUR        CLEAR     79  67  68 S8        29.98F
DENTON         PTCLDY    79  73  82 S7        29.97S
MCKINNEY       CLEAR     79  73  82 SE7       29.98S
GREENVILLE     CLEAR     77  68  73 SE5       29.99F
ROCKWALL       CLOUDY    79  73  81 S6        29.97F
TERRELL        CLOUDY    79  72  79 SE3       29.99F
WAXAHACHIE     CLEAR     76  74  92 S5        30.00S
CLEBURNE       CLEAR     77  73  88 SE7       30.00F
GRANBURY       CLEAR     80  69  68 SE5       29.99S
$$

TXZ083>090-098>101-113>116-127>130-139>142-154-155-301000-
WESTERN NORTH TEXAS

CITY           SKY/WX    TMP DP  RH WIND       PRES   REMARKS
WICHITA FALLS  CLOUDY    77  70  79 E5        29.96S
WF-KICKAPOO    PTCLDY    78  70  76 SE9       29.97S
VERNON         PTCLDY    77  65  67 E3        29.97S
ABILENE        CLEAR     79  62  56 S15       30.01F
ABILENE-DYESS  CLEAR     78  63  60 S10       29.99F
BRECKENRIDGE   CLEAR     80  64  58 S13G18    29.98S
GRAHAM         CLEAR     78  67  68 S5        29.96S
MINERAL WELLS  CLEAR     74  70  87 SE8       29.97S
STEPHENVILLE   CLEAR     74  66  76 CALM      30.03S
COMANCHE       PTCLDY    79  68  69 S10       30.01F
BROWNWOOD      CLOUDY    77  66  69 S3        30.02S
COLEMAN        PTCLDY    75  64  68 SW5       30.03S
$$

TXZ143>147-156>162-174-175-301000-
CENTRAL TEXAS

CITY           SKY/WX    TMP DP  RH WIND       PRES   REMARKS
WACO           CLOUDY    81  72  74 S13       29.99S
WACO-MCGREGOR  CLOUDY    81  72  74 S9        30.00S
HILLSBORO      CLOUDY    80  71  74 S7        29.99S
CORSICANA      CLOUDY    82  72  71 S9        30.00S
MEXIA          CLOUDY    79  73  80 S8        29.99F
HEARNE         CLEAR     76  74  92 CALM      30.02S
CAMERON        CLEAR     79  74  85 S9        30.01S
TEMPLE         CLEAR     78  72  81 S10       30.01F
KILLEEN        MOCLDY    78  71  81 S6        30.01S
KILLEEN-SKYLRK CLEAR     79  72  79 S8        30.01F
FORT HOOD      CLOUDY    78  71  79 S9        29.99S
GATESVILLE     PTCLDY    81  72  74 S9        30.02S
HAMILTON       CLOUDY    80  69  68 S12       30.02S
LAMPASAS       PTCLDY    78  72  81 S3        30.01F
$$

TXZ095>097-106>112-122>126-135>138-148>153-164>167-301000-
EAST TEXAS

CITY           SKY/WX    TMP DP  RH WIND       PRES   REMARKS
PARIS          CLEAR     72  61  68 S6        29.99S
SULPHUR SPRNGS CLEAR     76  67  74 S5        30.01S
MOUNT PLEASANT CLOUDY    72  66  83 E3        30.00F
GILMER         CLOUDY    76  71  84 S6        29.98S
MINEOLA        CLEAR     77  72  83 CALM      30.00S
TYLER          CLOUDY    79  72  79 S6        29.99F
LONGVIEW       CLOUDY    76  73  91 S5        29.98F
MARSHALL       CLEAR     73  70  91 CALM      30.00S
ATHENS         CLOUDY    77  73  88 S3        29.98F
PALESTINE      LGT RAIN  78  75  89 S5        30.01F
JACKSONVILLE   CLOUDY    78  74  87 SW5       30.03S
HENDERSON      CLOUDY    75  73  92 CALM      30.00F
CENTER         CLOUDY    79  77  92 S3        30.00F
NACOGDOCHES    CLOUDY   N/A N/A N/A SW6       29.99S
LUFKIN         CLOUDY    78  75  90 SW3       30.00F
$$

SUPPLEMENTAL OBSERVATIONS (CENTRAL)

CITY           SKY/WX    TMP DP  RH WIND       PRES   REMARKS
DENISON DAM      N/A     79  70  73 E3          N/A
CADDO GRASSLND   N/A     75  68  78 S2          N/A
PAT MAYSE LAKE   N/A     73  72  94 SE5         N/A
GREENVILLE       N/A     73  64  73 S2          N/A
CEDAR HILL       N/A     79  72  78 S7          N/A
ATHENS           N/A     79  73  83 S7          N/A
LAKE LIMESTONE   N/A     79  75  89 S6          N/A
MCGREGOR         N/A     79  72  78 S10         N/A
TEMPLE           N/A     77  72  83 S9          N/A
$$

SUPPLEMENTAL OBSERVATIONS (WEST)

CITY           SKY/WX    TMP DP  RH WIND       PRES   REMARKS
MILLERS CREEK    N/A     81  66  61 S9          N/A
POSSUM KINGDOM   N/A     79  64  61 S8          N/A
LBJ GRASSLAND    N/A     79  68  69 SE7         N/A
GRANBURY         N/A     81  70  69 SE6         N/A
COMANCHE         N/A     79  66  65 S8          N/A
HAMBY            N/A     75  63  64 S9          N/A
IVIE RESERVOIR   N/A     77  66  69 E2          N/A
COLORADO BEND    N/A     79  68  69 SW5         N/A
$$

SUPPLEMENTAL OBSERVATIONS (EAST)

CITY           SKY/WX    TMP DP  RH WIND       PRES   REMARKS
CLARKSVILLE      N/A     72  70  94 CALM        N/A
TEXARKANA        N/A     72  70  94 W1          N/A
LINDEN           N/A     73  70  88 S1          N/A
GILMER           N/A     77  72  83 SW5         N/A
HENDERSON        N/A     75  70  83 CALM        N/A
LUFKIN           N/A     77  75  94 MISG        N/A
N SABINE NF      N/A     75  72  88 MISG        N/A
S SABINE NF      N/A     75  73  94 S2          N/A
$$

SUPPLEMENTAL OBSERVATIONS ARE A COLLECTION OF AUTOMATED INSTRUMENTS
THAT ARE MAINTAINED BY A VARIETY OF FEDERAL AND STATE AGENCIES.
CERTAIN ELEMENTS...SUCH AS HUMIDITY VALUES AND SUSTAINED WIND
SPEEDS...MAY BE APPROXIMATED.





USA.gov is the U.S. government's official web portal to all federal, state and local government web resources and services.